Notices

What's New in latest Release from April 7th, 2021:

- Updated Glossary, including Speed of Maximum Gust, and Total Hourly Precipitation

- Updated national and regional climate services offices contacts and prices information

- Addition of station inventory lists for 1981-2010, 1971-2000, and 1961-1990 Normals.

If you haven't already, please take our survey and provide feedback about our website: https://eccc.sondage-survey.ca/f/LanguageSelection.aspx?s=442ca660-fcf1-47c0-95a9-59707d6fd709

Hourly Data Report for June 02, 2004

SHERBROOKE A
QUEBEC

45°26'00.000" N
71°41'00.000" W
241.40 m
7028124
71610
YSC

Download Data

Hourly Data (June 2004)
Hourly Data Report for June 2, 2004
TIME
LST
Temp Definition
°C
Dew Point Definition
°C
Rel Hum Definition
%
Precip. Amount Definition
mm

Wind Dir Definition
10's deg

Wind Spd Definition
km/h
Visibility Definition
km
Stn Press Definition
kPa
Hmdx Definition


Wind Chill Definition


Weather Definition


00:00 7.7 6.4 91   12 7 15.0 97.56     Rain
01:00 8.0 6.6 91   15 6 15.0 97.55     Rain
02:00 8.1 6.6 90   16 9 15.0 97.52      
03:00 8.2 6.7 90   14 6 15.0 97.52      
04:00 8.6 7.1 90   17 4 15.0 97.52      
05:00 9.1 7.3 88   16 7 15.0 97.51      
06:00 9.7 7.8 88   18 6 15.0 97.50     Rain
07:00 9.2 8.2 93   24 4 9.7 97.57     Rain,Fog
08:00 9.6 8.8 95   25 6 19.3 97.63     Rain
09:00 9.9 9.2 95   25 7 8.0 97.69     Drizzle,Fog
10:00 10.1 9.1 93   22 9 24.1 97.75     Cloudy
11:00 10.7 8.4 86   24 13 24.1 97.80     Cloudy
12:00 11.4 8.6 83   25 13 24.1 97.85     Mostly Cloudy
13:00 11.2 7.9 80   26 13 24.1 97.90     Cloudy
14:00 11.1 7.2 77   27 15 24.1 97.98     Cloudy
15:00 11.7 7.7 76   22 13 24.1 98.02     Cloudy
16:00 11.0 7.2 77   29 11 24.1 98.07     Cloudy
17:00 10.8 7.4 79   27 9 15.0 98.12      
18:00 11.0 7.4 78   26 7 15.0 98.17      
19:00 10.4 7.2 81   23 6 15.0 98.20      
20:00 8.4 6.8 90   21 4 15.0 98.24      
21:00 8.4 6.6 88   19 6 15.0 98.31      
22:00 9.5 6.9 84   21 6 15.0 98.31      
23:00 7.6 6.1 90     0 15.0 98.30      

Notes on Data Quality.

Legend

  • E = Estimated
  • M = Missing
  • NA = Not Available*
  • [empty] = Indicates an unobserved value
Date modified: